When you browse on this site, cookies collect data to enhance your experience and personalize the content and advertising you see.
Visit our Privacy Policy to learn more. By continuing to use the site, you agree to this use of cookies and data.
  • In Hungary
  • List of Countries
  • For 7 days
  • Water Temperature
  • Weather Map
  • News
  • Weather Widgets
  • user-avatar
    Login

    Hourly Weather Mihaylovka

    Today, 15 October, Tuesday

    Time Temperature Precipitation Wind Pressure Humidity
    00:00 +11°C° 0.6 mm 6 mps 742 mmHg 92%
    01:00 +13°C° 0.2 mm 6 mps 741 mmHg 90%
    02:00 +13°C° 0.2 mm 6 mps 741 mmHg 88%
    03:00 +14°C° 0.2 mm 7 mps 740 mmHg 87%
    04:00 +12°C° 0.1 mm 7 mps 740 mmHg 86%
    05:00 +12°C° 0.1 mm 7 mps 740 mmHg 86%
    06:00 +12°C° 0.1 mm 7 mps 740 mmHg 86%
    07:00 +12°C° 0 mm 7 mps 740 mmHg 86%
    08:00 +12°C° 0 mm 7 mps 740 mmHg 86%
    09:00 +12°C° 0 mm 7 mps 740 mmHg 85%
    10:00 +14°C° 0.1 mm 7 mps 740 mmHg 82%
    11:00 +14°C° 0.1 mm 7 mps 741 mmHg 78%
    12:00 +14°C° 0.1 mm 7 mps 741 mmHg 74%
    13:00 +14°C° 0.1 mm 7 mps 742 mmHg 73%
    14:00 +14°C° 0.1 mm 7 mps 743 mmHg 73%
    15:00 +14°C° 0.1 mm 6 mps 743 mmHg 72%
    16:00 +13°C° 0 mm 6 mps 744 mmHg 75%
    17:00 +10°C° 0 mm 5 mps 745 mmHg 78%
    18:00 +9°C° 0 mm 5 mps 745 mmHg 81%
    19:00 +8°C° 0 mm 4 mps 746 mmHg 82%
    20:00 +7°C° 0 mm 4 mps 747 mmHg 84%
    21:00 +7°C° 0 mm 3 mps 748 mmHg 85%
    22:00 +7°C° 0 mm 3 mps 748 mmHg 85%
    23:00 +5°C° 0 mm 3 mps 749 mmHg 84%

    Tomorrow, 16 October, Wednesday

    Time Temperature Precipitation Wind Pressure Humidity
    00:00 +4°C° 0 mm 3 mps 749 mmHg 83%
    01:00 +4°C° 0 mm 3 mps 750 mmHg 81%
    02:00 +3°C° 0 mm 4 mps 751 mmHg 79%
    03:00 +3°C° 0 mm 4 mps 751 mmHg 78%
    04:00 +2°C° 0 mm 3 mps 752 mmHg 79%
    05:00 +1°C° 0 mm 3 mps 752 mmHg 81%
    06:00 +2°C° 0 mm 2 mps 752 mmHg 82%
    07:00 +2°C° 0 mm 2 mps 753 mmHg 78%
    08:00 +2°C° 0 mm 3 mps 753 mmHg 73%
    09:00 +2°C° 0 mm 3 mps 754 mmHg 69%
    10:00 +3°C° 0 mm 3 mps 754 mmHg 65%
    11:00 +4°C° 0 mm 2 mps 754 mmHg 62%
    12:00 +5°C° 0 mm 2 mps 754 mmHg 58%
    13:00 +6°C° 0 mm 1 mps 754 mmHg 56%
    14:00 +7°C° 0 mm 1 mps 754 mmHg 55%
    15:00 +7°C° 0 mm 1 mps 754 mmHg 54%
    16:00 +6°C° 0 mm 1 mps 754 mmHg 58%
    17:00 +6°C° 0 mm 1 mps 754 mmHg 62%
    18:00 +5°C° 0 mm 1 mps 754 mmHg 66%
    19:00 +5°C° 0 mm 1 mps 754 mmHg 68%
    20:00 +4°C° 0 mm 1 mps 754 mmHg 70%
    21:00 +4°C° 0 mm 1 mps 754 mmHg 71%
    22:00 +3°C° 0 mm 2 mps 754 mmHg 73%
    23:00 +3°C° 0 mm 2 mps 754 mmHg 74%

    Day after tomorrow, 17 October, Thursday

    Time Temperature Precipitation Wind Pressure Humidity
    00:00 +2°C° 0 mm 2 mps 754 mmHg 75%
    01:00 +3°C° 0 mm 2 mps 753 mmHg 74%
    02:00 +2°C° 0 mm 3 mps 753 mmHg 73%
    03:00 +2°C° 0 mm 3 mps 753 mmHg 72%
    04:00 +2°C° 0 mm 3 mps 753 mmHg 72%
    05:00 +2°C° 0 mm 3 mps 753 mmHg 72%
    06:00 +2°C° 0 mm 3 mps 752 mmHg 73%
    07:00 +3°C° 0 mm 4 mps 752 mmHg 71%
    08:00 +3°C° 0 mm 5 mps 752 mmHg 69%
    09:00 +4°C° 0 mm 6 mps 751 mmHg 67%
    10:00 +5°C° 0 mm 6 mps 751 mmHg 65%
    11:00 +7°C° 0 mm 6 mps 750 mmHg 62%
    12:00 +8°C° 0 mm 7 mps 750 mmHg 60%
    13:00 +9°C° 0 mm 7 mps 749 mmHg 59%
    14:00 +9°C° 0 mm 7 mps 749 mmHg 59%
    15:00 +10°C° 0 mm 7 mps 748 mmHg 59%
    16:00 +9°C° 0 mm 6 mps 748 mmHg 64%
    17:00 +8°C° 0 mm 6 mps 747 mmHg 68%
    18:00 +8°C° 0 mm 6 mps 747 mmHg 73%
    19:00 +8°C° 0 mm 5 mps 747 mmHg 75%
    20:00 +8°C° 0 mm 5 mps 747 mmHg 77%
    21:00 +8°C° 0 mm 5 mps 747 mmHg 79%
    22:00 +7°C° 0 mm 5 mps 746 mmHg 82%
    23:00 +7°C° 0 mm 4 mps 746 mmHg 85%

    18 October, Friday

    Time Temperature Precipitation Wind Pressure Humidity
    00:00 +7°C° 0 mm 4 mps 746 mmHg 87%
    01:00 +7°C° 0 mm 4 mps 746 mmHg 90%
    02:00 +7°C° 0 mm 3 mps 746 mmHg 92%
    03:00 +7°C° 0 mm 3 mps 745 mmHg 94%
    04:00 +7°C° 0 mm 2 mps 745 mmHg 95%
    05:00 +7°C° 0 mm 2 mps 745 mmHg 96%
    06:00 +7°C° 0 mm 2 mps 745 mmHg 96%
    07:00 +9°C° 0 mm 1 mps 745 mmHg 95%
    08:00 +9°C° 0 mm 1 mps 745 mmHg 94%
    09:00 +10°C° 0 mm 1 mps 745 mmHg 93%
    10:00 +10°C° 0.1 mm 1 mps 746 mmHg 93%
    11:00 +9°C° 0.1 mm 2 mps 746 mmHg 92%
    12:00 +9°C° 0.1 mm 2 mps 746 mmHg 92%
    13:00 +8°C° 0.6 mm 3 mps 747 mmHg 91%
    14:00 +6°C° 0.6 mm 4 mps 747 mmHg 91%
    15:00 +5°C° 0.6 mm 5 mps 747 mmHg 91%
    16:00 +5°C° 0.3 mm 5 mps 747 mmHg 89%
    17:00 +3°C° 0.3 mm 5 mps 748 mmHg 88%
    18:00 +3°C° 0.3 mm 5 mps 748 mmHg 86%
    19:00 +3°C° 0 mm 5 mps 749 mmHg 84%
    20:00 +3°C° 0 mm 5 mps 749 mmHg 82%
    21:00 +3°C° 0 mm 5 mps 750 mmHg 79%
    22:00 +2°C° 0 mm 5 mps 750 mmHg 81%
    23:00 +3°C° 0 mm 4 mps 750 mmHg 83%

    19 October, Saturday

    Time Temperature Precipitation Wind Pressure Humidity
    00:00 +1°C° 0 mm 4 mps 751 mmHg 84%
    01:00 +1°C° 0 mm 4 mps 751 mmHg 85%
    02:00 +1°C° 0 mm 4 mps 751 mmHg 86%
    03:00 0°C° 0 mm 4 mps 751 mmHg 87%
    04:00 0°C° 0 mm 4 mps 752 mmHg 86%
    05:00 0°C° 0 mm 4 mps 752 mmHg 85%
    06:00 0°C° 0 mm 4 mps 752 mmHg 84%
    07:00 0°C° 0 mm 4 mps 752 mmHg 82%
    08:00 +1°C° 0 mm 4 mps 753 mmHg 79%
    09:00 +1°C° 0 mm 4 mps 753 mmHg 77%
    10:00 +1°C° 0 mm 4 mps 753 mmHg 75%
    11:00 +3°C° 0 mm 4 mps 753 mmHg 73%
    12:00 +3°C° 0 mm 3 mps 753 mmHg 71%
    13:00 +3°C° 0 mm 3 mps 753 mmHg 71%
    14:00 +3°C° 0 mm 3 mps 753 mmHg 71%
    15:00 +5°C° 0 mm 2 mps 753 mmHg 71%
    16:00 +4°C° 0 mm 2 mps 753 mmHg 73%
    17:00 +4°C° 0 mm 2 mps 753 mmHg 75%
    18:00 +4°C° 0 mm 2 mps 753 mmHg 78%
    19:00 +4°C° 0.1 mm 2 mps 753 mmHg 79%
    20:00 +4°C° 0.1 mm 2 mps 753 mmHg 79%
    21:00 +4°C° 0.1 mm 2 mps 754 mmHg 80%
    22:00 +4°C° 0.1 mm 2 mps 754 mmHg 81%
    23:00 +4°C° 0.1 mm 2 mps 753 mmHg 82%

    20 October, Sunday

    Time Temperature Precipitation Wind Pressure Humidity
    00:00 +4°C° 0.1 mm 2 mps 753 mmHg 83%
    01:00 +4°C° 0.1 mm 2 mps 753 mmHg 84%
    02:00 +5°C° 0.1 mm 1 mps 754 mmHg 85%
    03:00 +5°C° 0.1 mm 1 mps 754 mmHg 85%
    04:00 +5°C° 0 mm 1 mps 754 mmHg 86%
    05:00 +5°C° 0 mm 1 mps 754 mmHg 86%
    06:00 +5°C° 0 mm 1 mps 754 mmHg 86%
    07:00 +6°C° 0 mm 1 mps 754 mmHg 84%
    08:00 +6°C° 0 mm 1 mps 754 mmHg 82%
    09:00 +7°C° 0 mm 1 mps 754 mmHg 80%
    10:00 +7°C° 0 mm 1 mps 754 mmHg 78%
    11:00 +7°C° 0 mm 0 mps 755 mmHg 76%
    12:00 +8°C° 0 mm 0 mps 755 mmHg 74%
    13:00 +8°C° 0 mm 0 mps 755 mmHg 74%
    14:00 +8°C° 0 mm 0 mps 755 mmHg 74%
    15:00 +8°C° 0 mm 0 mps 755 mmHg 74%
    16:00 +8°C° 0 mm 0 mps 755 mmHg 78%
    17:00 +7°C° 0 mm 0 mps 755 mmHg 82%
    18:00 +6°C° 0 mm 0 mps 755 mmHg 85%
    19:00 +6°C° 0 mm 0 mps 755 mmHg 86%
    20:00 +6°C° 0 mm 0 mps 755 mmHg 87%
    21:00 +7°C° 0 mm 1 mps 756 mmHg 88%
    22:00 +6°C° 0 mm 1 mps 756 mmHg 89%
    23:00 +6°C° 0 mm 1 mps 756 mmHg 90%
    Show more